Location: Prague
(50.0830°N, 14.4670°E)
Time: 20:15:56
(UTC+01:00)

HuskySat-1 - Pass Details

Date: 02 December 2021
Orbit: 439 x 453 km, 51.6° (Epoch: 25 January)

Event Time Altitude Azimuth Distance (km) Brightness Sun altitude
Rises 17:44:07 0° 208° (SSW) 2,463 ? -15.6°
Reaches altitude 10° 17:46:36 10° 191° (S) 1,591 ? -15.9°
Maximum altitude 17:49:20 21° 141° (SE) 1,084 ? -16.4°
Enters shadow 17:49:42 20° 132° (SE) 1,095 ? -16.4°
